Flag for Germany Weather past 2 weeks in Oberhausen, North Rhine-Westphalia, Germany

Now
57 °F

Scattered clouds.


Feels Like: 55 °F
Forecast: 50 / 60 °F
Wind: 8 mph from West

Location: Duesseldorf

Current Time: Sep 5, 2015 at 9:58:54 AM

Latest Report: Sep 5, 2015 at 9:20 AM


Visibility: N/A

Pressure: 29.98 "Hg

Humidity: 94%

Dew point: 55 °F

Location of OberhausenLocation

Historic Weather in Oberhausen — Graph

°F

Oberhausen temperature yesterday

Maximum temperature yesterday: 61 °F (at 1:50 PM)
Minimum temperature yesterday: 52 °F (at 5:50 AM)
Average temperature yesterday: 57 °F

Past Weeks' High & Low Weather Summary

 TemperatureHumidityPressure
High90 °F (Aug 30, 3:20 PM)100% (Aug 27, 8:20 PM)30.24 "Hg (Aug 27, 8:20 PM)
Low52 °F (Aug 29, 2:20 AM)30% (Aug 22, 5:20 PM)29.50 "Hg (Aug 24, 4:50 PM)
Average66 °F72%29.94 "Hg
* Reported Aug 21 8:20 AM — Sep 5 8:50 AM, Oberhausen, Weather by CustomWeather, © 2015

Note: Actual official high and low records may vary slightly from our data, if they occured in-between our weather recording intervals... More about our weather records

Advertising

Oberhausen weather history for previous 24 hours

 ConditionsComfort  
Time TempWeatherWind HumidityBarometerVisibility
8:50 AM
Sat, Sep 5
55 °FBroken clouds.8 mph94%29.98 "HgN/A
8:20 AM55 °FDrizzle. Low clouds.9 mph94%29.98 "Hg2 mi
7:50 AM55 °FLow clouds.8 mph94%29.95 "Hg4 mi
7:20 AM55 °FLow clouds.7 mph94%29.95 "Hg4 mi
6:50 AM55 °FLow clouds.9 mph94%29.95 "Hg4 mi
6:20 AM55 °FDrizzle. Low clouds.8 mph94%29.95 "Hg4 mi
5:50 AM55 °FDrizzle. Low clouds.9 mph94%29.95 "Hg6 mi
5:20 AM55 °FPassing clouds.10 mph94%29.95 "HgN/A
4:50 AM55 °FPassing clouds.10 mph94%29.95 "HgN/A
4:20 AM55 °FPassing clouds.12 mph88%29.95 "HgN/A
3:50 AM55 °FPassing clouds.14 mph94%29.95 "HgN/A
3:20 AM55 °FPassing clouds.13 mph94%29.92 "HgN/A
2:50 AM55 °FPassing clouds.12 mph88%29.92 "Hg5 mi
2:20 AM55 °FPartly cloudy.14 mph88%29.92 "Hg5 mi
1:50 AM55 °FPartly cloudy.15 mph88%29.92 "HgN/A
1:20 AM55 °FPartly cloudy.13 mph88%29.92 "HgN/A
12:50 AM55 °FPartly cloudy.14 mph88%29.95 "HgN/A
12:20 AM55 °FPassing clouds.14 mph88%29.95 "HgN/A
11:20 PM
Fri, Sep 4
55 °FPartly cloudy.13 mph88%29.95 "HgN/A
10:50 PM55 °FPartly cloudy.15 mph88%29.95 "Hg5 mi
10:20 PM55 °FLight rain. Passing clouds.12 mph88%29.95 "HgN/A
9:50 PM55 °FRain. Partly cloudy.9 mph88%29.95 "HgN/A
9:20 PM57 °FLight rain. Passing clouds.13 mph77%29.95 "HgN/A
8:50 PM57 °FPartly sunny.14 mph77%29.95 "HgN/A
8:20 PM59 °FPartly sunny.10 mph68%29.92 "HgN/A
7:50 PM59 °FPartly sunny.12 mph68%29.92 "HgN/A
7:20 PM59 °FPartly sunny.12 mph63%29.92 "HgN/A
6:50 PM59 °FPartly sunny.12 mph63%29.92 "HgN/A
6:20 PM61 °FPartly sunny.13 mph59%29.92 "HgN/A
5:50 PM61 °FPartly sunny.14 mph63%29.92 "HgN/A
5:20 PM61 °FPartly sunny.14 mph63%29.92 "HgN/A
4:50 PM61 °FPartly sunny.10 mph68%29.95 "HgN/A
4:20 PM59 °FSprinkles. Partly sunny.8 mph72%29.95 "HgN/A
3:50 PM61 °FPartly sunny.16 mph63%29.95 "HgN/A
3:20 PM61 °FBroken clouds.14 mph63%29.95 "HgN/A
2:50 PM61 °FPartly sunny.15 mph63%29.95 "HgN/A
2:20 PM61 °FPartly sunny.13 mph63%29.95 "HgN/A
1:50 PM61 °FPartly sunny.14 mph63%29.95 "HgN/A
1:20 PM59 °FBroken clouds.10 mph72%29.98 "HgN/A
12:50 PM59 °FPartly sunny.15 mph68%29.98 "HgN/A
12:20 PM59 °FBroken clouds.15 mph68%29.98 "HgN/A
11:50 AM59 °FScattered clouds.15 mph68%29.98 "HgN/A
11:20 AM59 °FScattered clouds.14 mph68%29.98 "HgN/A
10:50 AM59 °FScattered clouds.12 mph72%29.95 "HgN/A
10:20 AM57 °FPassing clouds.10 mph77%29.98 "HgN/A
9:50 AM55 °FPartly sunny.9 mph82%29.95 "HgN/A
9:20 AM55 °FScattered clouds.12 mph82%29.95 "HgN/A
Weather by CustomWeather, © 2015

See weather overviewHow to use our weather pages